TimeCST,TemperatureF,Dew PointF,Humidity,Sea Level PressureIn,VisibilityMPH,Wind Direction,Wind SpeedMPH,Gust SpeedMPH,PrecipitationIn,Events,Conditions,WindDirDegrees,DateUTC
12:14 AM,-2.2,-9.4,71,29.84,5.0,NW,11.5,-,N/A,,Haze,320,2013-01-31 06:14:00
12:35 AM,-2.2,-9.4,71,29.84,7.0,NW,12.7,-,N/A,,Scattered Clouds,320,2013-01-31 06:35:00
12:54 AM,-2.2,-9.4,71,29.85,10.0,NNW,16.1,-,N/A,,Clear,330,2013-01-31 06:54:00
1:14 AM,-2.2,-9.4,71,29.86,10.0,NNW,12.7,-,N/A,,Scattered Clouds,330,2013-01-31 07:14:00
1:35 AM,-4.0,-11.2,71,29.86,10.0,NW,18.4,-,N/A,,Scattered Clouds,320,2013-01-31 07:35:00
1:54 AM,-4.0,-11.2,71,29.87,7.0,NNW,17.3,-,N/A,,Clear,330,2013-01-31 07:54:00
2:14 AM,-4.0,-11.2,71,29.88,5.0,NNW,15.0,-,N/A,Snow,Light Snow,330,2013-01-31 08:14:00
2:35 AM,-4.0,-11.2,71,29.89,5.0,NW,15.0,-,N/A,,Haze,320,2013-01-31 08:35:00
2:54 AM,-4.0,-11.2,71,29.89,5.0,NW,12.7,-,N/A,,Haze,320,2013-01-31 08:54:00
3:14 AM,-5.8,-11.2,77,29.90,7.0,NW,10.4,-,N/A,Snow,Light Snow,310,2013-01-31 09:14:00
3:34 AM,-5.8,-11.2,77,29.90,5.0,NW,11.5,-,N/A,Snow,Light Snow,310,2013-01-31 09:34:00
3:54 AM,-5.8,-11.2,77,29.91,4.0,NW,12.7,-,N/A,,Haze,310,2013-01-31 09:54:00
4:14 AM,-5.8,-11.2,77,29.91,4.0,NW,12.7,-,N/A,Snow,Light Snow,310,2013-01-31 10:14:00
4:34 AM,-5.8,-11.2,77,29.92,5.0,NW,11.5,-,N/A,,Haze,310,2013-01-31 10:34:00
4:54 AM,-5.8,-11.2,77,29.93,4.0,NW,11.5,-,N/A,Snow,Light Snow,310,2013-01-31 10:54:00
5:14 AM,-5.8,-11.2,77,29.94,4.0,NW,10.4,-,N/A,Snow,Light Snow,310,2013-01-31 11:14:00
5:34 AM,-5.8,-11.2,77,29.95,5.0,NW,15.0,-,N/A,Snow,Light Snow,320,2013-01-31 11:34:00
5:55 AM,-5.8,-11.2,77,29.96,4.0,NW,13.8,-,N/A,Snow,Light Snow,320,2013-01-31 11:55:00
6:14 AM,-5.8,-11.2,77,29.97,4.0,NW,13.8,-,N/A,Snow,Light Snow,320,2013-01-31 12:14:00
6:35 AM,-5.8,-13.0,71,29.98,5.0,NW,11.5,-,N/A,Snow,Light Snow,310,2013-01-31 12:35:00
6:54 AM,-5.8,-13.0,71,29.99,4.0,NW,13.8,-,N/A,Snow,Light Snow,310,2013-01-31 12:54:00
7:14 AM,-7.6,-13.0,77,30.00,5.0,NW,13.8,-,N/A,Snow,Light Snow,310,2013-01-31 13:14:00
7:35 AM,-7.6,-14.8,71,30.01,7.0,NW,12.7,-,N/A,,Clear,320,2013-01-31 13:35:00
7:54 AM,-7.6,-14.8,71,30.02,7.0,NW,12.7,-,N/A,Snow,Light Snow,310,2013-01-31 13:54:00
8:14 AM,-7.6,-14.8,71,30.03,10.0,NW,12.7,-,N/A,,Clear,310,2013-01-31 14:14:00
8:34 AM,-7.6,-14.8,71,30.04,7.0,NW,13.8,-,N/A,,Clear,310,2013-01-31 14:34:00
8:54 AM,-9.4,-16.6,71,30.05,4.0,NW,15.0,-,N/A,Snow,Light Snow,310,2013-01-31 14:54:00
9:34 AM,-7.6,-16.6,65,30.06,7.0,NW,13.8,-,N/A,,Clear,310,2013-01-31 15:34:00
9:53 AM,-7.6,-16.6,65,30.07,5.0,NW,15.0,-,N/A,,Haze,310,2013-01-31 15:53:00
10:14 AM,-7.6,-16.6,65,30.08,10.0,NW,12.7,19.6,N/A,,Clear,310,2013-01-31 16:14:00
10:34 AM,-7.6,-16.6,65,30.09,10.0,WNW,11.5,-,N/A,,Clear,300,2013-01-31 16:34:00
10:54 AM,-7.6,-16.6,65,30.10,10.0,WNW,11.5,-,N/A,,Clear,300,2013-01-31 16:54:00
11:14 AM,-7.6,-16.6,65,30.11,10.0,WNW,13.8,18.4,N/A,,Clear,290,2013-01-31 17:14:00
11:34 AM,-7.6,-16.6,65,30.11,10.0,WNW,13.8,19.6,N/A,,Clear,290,2013-01-31 17:34:00
11:55 AM,-7.6,-16.6,65,30.11,10.0,WNW,12.7,18.4,N/A,,Clear,290,2013-01-31 17:55:00
12:14 PM,-7.6,-16.6,65,30.11,10.0,WNW,13.8,19.6,N/A,,Clear,290,2013-01-31 18:14:00
12:34 PM,-7.6,-16.6,65,30.11,10.0,WNW,12.7,20.7,N/A,,Clear,300,2013-01-31 18:34:00
12:54 PM,-7.6,-16.6,65,30.11,10.0,WNW,11.5,19.6,N/A,,Clear,290,2013-01-31 18:54:00
1:14 PM,-7.6,-16.6,65,30.11,10.0,WNW,12.7,18.4,N/A,,Clear,290,2013-01-31 19:14:00
1:34 PM,-7.6,-16.6,65,30.12,10.0,WNW,13.8,17.3,N/A,,Clear,290,2013-01-31 19:34:00
1:54 PM,-7.6,-18.4,59,30.12,10.0,West,13.8,-,N/A,,Clear,280,2013-01-31 19:54:00
2:14 PM,-7.6,-18.4,59,30.12,10.0,West,13.8,20.7,N/A,,Clear,280,2013-01-31 20:14:00
2:34 PM,-9.4,-18.4,65,30.13,10.0,West,12.7,21.9,N/A,,Clear,280,2013-01-31 20:34:00
2:54 PM,-9.4,-18.4,65,30.14,10.0,West,13.8,23.0,N/A,,Clear,280,2013-01-31 20:54:00
3:14 PM,-9.4,-18.4,65,30.15,10.0,West,16.1,23.0,N/A,,Clear,280,2013-01-31 21:14:00
3:34 PM,-11.2,-20.2,64,30.16,10.0,West,13.8,23.0,N/A,,Clear,280,2013-01-31 21:34:00
3:54 PM,-11.2,-20.2,64,30.17,10.0,West,12.7,21.9,N/A,,Clear,280,2013-01-31 21:54:00
4:14 PM,-11.2,-20.2,64,30.17,10.0,West,13.8,20.7,N/A,,Clear,280,2013-01-31 22:14:00
4:34 PM,-13.0,-22.0,64,30.17,10.0,West,11.5,-,N/A,,Clear,280,2013-01-31 22:34:00
4:54 PM,-13.0,-22.0,64,30.18,10.0,West,13.8,19.6,N/A,,Clear,280,2013-01-31 22:54:00
5:14 PM,-14.8,-23.8,64,30.18,10.0,West,11.5,-,N/A,,Clear,280,2013-01-31 23:14:00
5:35 PM,-14.8,-23.8,64,30.19,10.0,WNW,10.4,-,N/A,,Clear,290,2013-01-31 23:35:00
6:15 PM,-16.6,-23.8,70,30.19,10.0,WNW,11.5,-,N/A,,Clear,290,2013-02-01 00:15:00
6:34 PM,-16.6,-23.8,70,30.20,10.0,West,12.7,-,N/A,,Clear,280,2013-02-01 00:34:00
6:54 PM,-16.6,-23.8,70,30.19,10.0,WNW,10.4,-,N/A,,Clear,290,2013-02-01 00:54:00
7:14 PM,-16.6,-23.8,70,30.19,10.0,WNW,10.4,-,N/A,,Clear,290,2013-02-01 01:14:00
7:34 PM,-18.4,-25.6,70,30.20,10.0,West,9.2,-,N/A,,Clear,280,2013-02-01 01:34:00
8:14 PM,-18.4,-25.6,70,30.21,10.0,West,8.1,-,N/A,,Clear,280,2013-02-01 02:14:00
8:34 PM,-18.4,-27.4,63,30.21,10.0,West,10.4,-,N/A,,Clear,270,2013-02-01 02:34:00
8:54 PM,-20.2,-25.6,76,30.21,10.0,West,6.9,-,N/A,,Clear,280,2013-02-01 02:54:00
9:14 PM,-20.2,-27.4,69,-9999,10.0,West,5.8,-,N/A,,Clear,280,2013-02-01 03:14:00
9:34 PM,-20.2,-27.4,69,30.21,10.0,West,6.9,-,N/A,,Clear,280,2013-02-01 03:34:00
10:14 PM,-20.2,-27.4,69,30.21,10.0,West,5.8,-,N/A,,Clear,270,2013-02-01 04:14:00
10:34 PM,-20.2,-27.4,69,30.20,10.0,West,6.9,-,N/A,,Clear,270,2013-02-01 04:34:00
11:14 PM,-20.2,-27.4,69,30.19,10.0,West,5.8,-,N/A,,Clear,270,2013-02-01 05:14:00
11:34 PM,-20.2,-27.4,69,30.19,10.0,West,5.8,-,N/A,,Clear,260,2013-02-01 05:34:00
11:54 PM,-20.2,-27.4,69,30.19,10.0,West,5.8,-,N/A,,Clear,260,2013-02-01 05:54:00